Location: Albuquerque Trailhead
(34.7934°N, 106.3736°W)
Time: 02:24:33
(UTC+00:00)

Cosmos 2142 Rocket - Pass Details

Date: 20 June 2021
Orbit: 953 x 1004 km, 83.0° (Epoch: 27 July)

Event Time Altitude Azimuth Distance (km) Brightness Sun altitude
Rises 07:47:19 0° 351° (N) 3,635 8.5 -31.0°
Reaches altitude 10° 07:49:49 10° 350° (N) 2,688 7.6 -30.9°
Enters shadow 07:55:25 71° 311° (NW) 1,011 4.5 -30.7°
